| time (UTC) | temp C | wind direction | speed KPH | gust KPH | rain 1hr cm | rain 24hr cm | rain mn cm | humidity % | barometer mb |
| 20260505114904 | 6 | 122 | 0.0 | 4.8 | 0.00 | 0.00 | 0.00 | 49 | 1012.2 |
| 20260505114405 | 7 | 224 | 0.0 | 4.8 | 0.00 | 0.00 | 0.00 | 48 | 1012.3 |
| 20260505113405 | 7 | 248 | 0.0 | 0.0 | 0.00 | 0.00 | 0.00 | 50 | 1012.4 |
| 20260505112904 | 7 | 15 | 0.0 | 0.0 | 0.00 | 0.00 | 0.00 | 49 | 1012.2 |
| 20260505112404 | 7 | 15 | 0.0 | 0.0 | 0.00 | 0.00 | 0.00 | 49 | 1012.3 |
| 20260505111904 | 7 | 15 | 0.0 | 4.8 | 0.00 | 0.00 | 0.00 | 49 | 1012.3 |
| 20260505111404 | 7 | 277 | 0.0 | 0.0 | 0.00 | 0.00 | 0.00 | 49 | 1012.2 |
| 20260505110904 | 7 | 277 | 0.0 | 0.0 | 0.00 | 0.00 | 0.00 | 49 | 1012.2 |
| 20260505101903 | 5 | 5 | 0.0 | 0.0 | 0.00 | 0.00 | 0.00 | 63 | 1012.2 |
| 20260505101405 | 5 | 5 | 0.0 | 0.0 | 0.00 | 0.00 | 0.00 | 63 | 1012.2 |
| 20260505100904 | 5 | 5 | 0.0 | 0.0 | 0.00 | 0.00 | 0.00 | 64 | 1012.2 |
| 20260505100404 | 5 | 5 | 0.0 | 0.0 | 0.00 | 0.00 | 0.00 | 64 | 1012.2 |
| 20260505095904 | 5 | 5 | 0.0 | 0.0 | 0.00 | 0.00 | 0.00 | 63 | 1012.1 |
| 20260505095404 | 5 | 5 | 0.0 | 0.0 | 0.00 | 0.00 | 0.00 | 63 | 1012.0 |
| 20260505094904 | 5 | 5 | 0.0 | 0.0 | 0.00 | 0.00 | 0.00 | 64 | 1012.1 |
| 20260505094404 | 5 | 5 | 0.0 | 0.0 | 0.00 | 0.00 | 0.00 | 63 | 1012.0 |
| 20260505093904 | 5 | 5 | 0.0 | 0.0 | 0.00 | 0.00 | 0.00 | 64 | 1012.1 |
| 20260505093404 | 5 | 5 | 0.0 | 0.0 | 0.00 | 0.00 | 0.00 | 64 | 1012.0 |
| 20260505092904 | 5 | 5 | 0.0 | 0.0 | 0.00 | 0.00 | 0.00 | 64 | 1012.0 |
| 20260505092404 | 5 | 5 | 0.0 | 0.0 | 0.00 | 0.00 | 0.00 | 64 | 1011.9 |
| 20260505091904 | 5 | 5 | 0.0 | 0.0 | 0.00 | 0.00 | 0.00 | 64 | 1011.9 |
| 20260505091404 | 5 | 5 | 0.0 | 0.0 | 0.00 | 0.00 | 0.00 | 64 | 1012.0 |
| 20260505090904 | 5 | 5 | 0.0 | 0.0 | 0.00 | 0.00 | 0.00 | 64 | 1012.0 |
| 20260505090404 | 5 | 5 | 0.0 | 0.0 | 0.00 | 0.00 | 0.00 | 63 | 1011.9 |
| 20260505085904 | 5 | 5 | 0.0 | 0.0 | 0.00 | 0.00 | 0.00 | 63 | 1011.8 |
| 20260505085404 | 5 | 5 | 0.0 | 0.0 | 0.00 | 0.00 | 0.00 | 63 | 1011.8 |
| 20260505084903 | 5 | 5 | 0.0 | 0.0 | 0.00 | 0.00 | 0.00 | 63 | 1011.9 |
| 20260505084404 | 5 | 5 | 0.0 | 0.0 | 0.00 | 0.00 | 0.00 | 63 | 1011.9 |
| 20260505083904 | 5 | 5 | 0.0 | 0.0 | 0.00 | 0.00 | 0.00 | 64 | 1011.9 |
| 20260505082904 | 5 | 5 | 0.0 | 0.0 | 0.00 | 0.00 | 0.00 | 64 | 1011.9 |
| 20260505082404 | 5 | 5 | 0.0 | 0.0 | 0.00 | 0.00 | 0.00 | 64 | 1012.0 |
| 20260505081904 | 5 | 5 | 0.0 | 0.0 | 0.00 | 0.00 | 0.00 | 63 | 1012.2 |
| 20260505081404 | 5 | 5 | 0.0 | 0.0 | 0.00 | 0.00 | 0.00 | 63 | 1012.1 |
| 20260505080904 | 5 | 5 | 0.0 | 0.0 | 0.00 | 0.00 | 0.00 | 63 | 1012.1 |
| 20260505080404 | 5 | 5 | 0.0 | 0.0 | 0.00 | 0.00 | 0.00 | 63 | 1012.0 |
| 20260505075904 | 5 | 5 | 0.0 | 0.0 | 0.00 | 0.00 | 0.00 | 62 | 1012.0 |
| 20260505075404 | 5 | 5 | 0.0 | 0.0 | 0.00 | 0.00 | 0.00 | 62 | 1012.1 |
| 20260505074904 | 5 | 5 | 0.0 | 0.0 | 0.00 | 0.00 | 0.00 | 61 | 1012.1 |
| 20260505074404 | 5 | 5 | 0.0 | 0.0 | 0.00 | 0.00 | 0.00 | 60 | 1012.1 |
| 20260505073404 | 6 | 5 | 0.0 | 0.0 | 0.00 | 0.00 | 0.00 | 61 | 1012.0 |
| 20260505072904 | 6 | 5 | 0.0 | 0.0 | 0.00 | 0.00 | 0.00 | 61 | 1012.0 |
| 20260505072404 | 6 | 5 | 0.0 | 0.0 | 0.00 | 0.00 | 0.00 | 60 | 1012.0 |
| 20260505071904 | 6 | 5 | 0.0 | 0.0 | 0.00 | 0.00 | 0.00 | 59 | 1012.0 |
| 20260505071404 | 6 | 5 | 0.0 | 0.0 | 0.00 | 0.00 | 0.00 | 59 | 1012.1 |
| 20260505070404 | 6 | 5 | 0.0 | 0.0 | 0.00 | 0.00 | 0.00 | 58 | 1012.1 |
| 20260505065904 | 6 | 5 | 0.0 | 0.0 | 0.00 | 0.00 | 0.00 | 58 | 1012.0 |
| 20260505065404 | 6 | 5 | 0.0 | 0.0 | 0.00 | 0.00 | 0.00 | 58 | 1012.0 |
| 20260505064904 | 6 | 5 | 0.0 | 0.0 | 0.00 | 0.00 | 0.00 | 58 | 1012.0 |
| 20260505064404 | 6 | 5 | 0.0 | 0.0 | 0.00 | 0.00 | 0.00 | 58 | 1012.0 |
| 20260505062904 | 6 | 5 | 0.0 | 0.0 | 0.00 | 0.00 | 0.00 | 58 | 1012.0 |
| 20260505062404 | 6 | 5 | 0.0 | 0.0 | 0.00 | 0.00 | 0.00 | 57 | 1012.0 |
| 20260505061904 | 6 | 5 | 0.0 | 0.0 | 0.00 | 0.00 | 0.00 | 57 | 1012.0 |
| 20260505061404 | 6 | 5 | 0.0 | 0.0 | 0.00 | 0.00 | 0.00 | 58 | 1011.9 |
| 20260505060404 | 7 | 5 | 0.0 | 0.0 | 0.00 | 0.00 | 0.00 | 57 | 1012.0 |
| 20260505055904 | 6 | 5 | 0.0 | 0.0 | 0.00 | 0.00 | 0.00 | 56 | 1012.0 |
| 20260505055405 | 7 | 5 | 0.0 | 0.0 | 0.00 | 0.00 | 0.00 | 56 | 1012.0 |
| 20260505054904 | 7 | 5 | 0.0 | 0.0 | 0.00 | 0.00 | 0.00 | 55 | 1012.0 |
| 20260505054403 | 7 | 5 | 0.0 | 0.0 | 0.00 | 0.00 | 0.00 | 54 | 1011.9 |
| 20260505053903 | 7 | 5 | 0.0 | 0.0 | 0.00 | 0.00 | 0.00 | 53 | 1011.8 |
| 20260505052404 | 7 | 5 | 0.0 | 0.0 | 0.00 | 0.00 | 0.00 | 52 | 1011.6 |
| 20260505051904 | 7 | 5 | 0.0 | 0.0 | 0.00 | 0.00 | 0.00 | 52 | 1011.5 |
| 20260505051404 | 7 | 5 | 0.0 | 0.0 | 0.00 | 0.00 | 0.00 | 52 | 1011.5 |
| 20260505050904 | 7 | 5 | 0.0 | 0.0 | 0.00 | 0.00 | 0.00 | 52 | 1011.5 |
| 20260505050404 | 8 | 5 | 0.0 | 0.0 | 0.00 | 0.00 | 0.00 | 51 | 1011.5 |
| 20260505041418 | 8 | 5 | 0.0 | 0.0 | 0.00 | 0.00 | 0.00 | 48 | 1011.2 |
| 20260505040904 | 8 | 5 | 0.0 | 0.0 | 0.00 | 0.00 | 0.00 | 47 | 1011.2 |
| 20260505040404 | 8 | 5 | 0.0 | 0.0 | 0.00 | 0.00 | 0.00 | 47 | 1011.1 |
| 20260505034904 | 9 | 5 | 0.0 | 0.0 | 0.00 | 0.00 | 0.00 | 45 | 1010.9 |
| 20260505034403 | 9 | 5 | 0.0 | 0.0 | 0.00 | 0.00 | 0.00 | 45 | 1010.7 |
| 20260505033903 | 9 | 5 | 0.0 | 0.0 | 0.00 | 0.00 | 0.00 | 42 | 1010.6 |
| 20260505033404 | 10 | 5 | 0.0 | 0.0 | 0.00 | 0.00 | 0.00 | 43 | 1010.6 |
| 20260505032904 | 10 | 5 | 0.0 | 0.0 | 0.00 | 0.00 | 0.00 | 41 | 1010.4 |
| 20260505032404 | 10 | 5 | 0.0 | 0.0 | 0.00 | 0.00 | 0.00 | 41 | 1010.5 |
| 20260505031904 | 11 | 5 | 0.0 | 0.0 | 0.00 | 0.00 | 0.00 | 37 | 1010.4 |
| 20260505031404 | 11 | 5 | 0.0 | 0.0 | 0.00 | 0.00 | 0.00 | 36 | 1010.3 |
| 20260505030904 | 11 | 5 | 0.0 | 0.0 | 0.00 | 0.00 | 0.00 | 36 | 1010.2 |
| 20260505030407 | 12 | 5 | 0.0 | 0.0 | 0.00 | 0.00 | 0.00 | 35 | 1010.1 |
| 20260505025904 | 12 | 5 | 0.0 | 0.0 | 0.00 | 0.00 | 0.00 | 34 | 1010.1 |
| 20260505025404 | 12 | 5 | 0.0 | 0.0 | 0.00 | 0.00 | 0.00 | 33 | 1010.0 |
| 20260505024904 | 13 | 5 | 0.0 | 0.0 | 0.00 | 0.00 | 0.00 | 34 | 1010.0 |
| 20260505024404 | 13 | 5 | 0.0 | 0.0 | 0.00 | 0.00 | 0.00 | 32 | 1010.0 |
| 20260505023404 | 13 | 5 | 0.0 | 0.0 | 0.00 | 0.00 | 0.00 | 32 | 1010.0 |
| 20260505022905 | 13 | 5 | 0.0 | 0.0 | 0.00 | 0.00 | 0.00 | 30 | 1009.8 |
| 20260505022404 | 13 | 5 | 0.0 | 0.0 | 0.00 | 0.00 | 0.00 | 30 | 1009.8 |
| 20260505021904 | 14 | 5 | 0.0 | 0.0 | 0.00 | 0.00 | 0.00 | 29 | 1009.8 |
| 20260505021404 | 14 | 5 | 0.0 | 0.0 | 0.00 | 0.00 | 0.00 | 29 | 1009.8 |
| 20260505020904 | 14 | 5 | 0.0 | 0.0 | 0.00 | 0.00 | 0.00 | 29 | 1009.9 |
| 20260505020405 | 14 | 5 | 0.0 | 0.0 | 0.00 | 0.00 | 0.00 | 29 | 1009.9 |
| 20260505015903 | 14 | 5 | 0.0 | 0.0 | 0.00 | 0.00 | 0.00 | 27 | 1009.9 |
| 20260505015404 | 15 | 5 | 0.0 | 0.0 | 0.00 | 0.00 | 0.00 | 27 | 1009.8 |
| 20260505014904 | 15 | 5 | 0.0 | 0.0 | 0.00 | 0.00 | 0.00 | 27 | 1009.9 |
| 20260505014404 | 15 | 5 | 0.0 | 0.0 | 0.00 | 0.00 | 0.00 | 28 | 1009.8 |
| 20260505013904 | 15 | 5 | 0.0 | 8.0 | 0.00 | 0.00 | 0.00 | 26 | 1009.8 |
| 20260505013404 | 15 | 71 | 0.0 | 3.2 | 0.00 | 0.00 | 0.00 | 26 | 1009.8 |
| 20260505012904 | 15 | 222 | 1.6 | 4.8 | 0.00 | 0.00 | 0.00 | 26 | 1009.9 |
| 20260505012405 | 15 | 244 | 0.0 | 19.3 | 0.00 | 0.00 | 0.00 | 27 | 1010.0 |
| 20260505011905 | 15 | 223 | 1.6 | 16.1 | 0.00 | 0.00 | 0.00 | 25 | 1010.1 |
| 20260505011404 | 15 | 320 | 0.0 | 8.0 | 0.00 | 0.00 | 0.00 | 24 | 1010.0 |
| 20260505010404 | 16 | 344 | 6.4 | 24.1 | 0.00 | 0.00 | 0.00 | 22 | 1010.1 |
| 20260505005904 | 16 | 228 | 6.4 | 32.2 | 0.00 | 0.00 | 0.00 | 19 | 1010.0 |
| 20260505005404 | 16 | 227 | 1.6 | 16.1 | 0.00 | 0.00 | 0.00 | 17 | 1009.7 |
| 20260505004904 | 16 | 250 | 6.4 | 16.1 | 0.00 | 0.00 | 0.00 | 18 | 1009.7 |
| 20260505004407 | 16 | 229 | 9.7 | 19.3 | 0.00 | 0.00 | 0.00 | 19 | 1009.7 |
| 20260505003404 | 16 | 267 | 6.4 | 20.9 | 0.00 | 0.00 | 0.00 | 19 | 1009.7 |
| 20260505002903 | 16 | 231 | 16.1 | 27.4 | 0.00 | 0.00 | 0.00 | 19 | 1009.7 |
| 20260505002404 | 16 | 233 | 6.4 | 19.3 | 0.00 | 0.00 | 0.00 | 19 | 1009.6 |
| 20260505001904 | 17 | 233 | 4.8 | 14.5 | 0.00 | 0.00 | 0.00 | 19 | 1009.6 |
| 20260505000904 | 17 | 247 | 14.5 | 25.7 | 0.00 | 0.00 | 0.00 | 16 | 1009.6 |
| 20260505000405 | 18 | 256 | 1.6 | 22.5 | 0.00 | 0.00 | 0.00 | 14 | 1009.5 |
| 20260504235903 | 18 | 236 | 4.8 | 16.1 | 0.00 | 0.00 | 0.00 | 15 | 1009.4 |
| 20260504235404 | 18 | 243 | 0.0 | 0.0 | 0.00 | 0.00 | 0.00 | 14 | 1009.4 |
| 20260504233904 | 18 | 38 | 4.8 | 12.9 | 0.00 | 0.00 | 0.00 | 13 | 1009.5 |
| 20260504233404 | 18 | 46 | 0.0 | 3.2 | 0.00 | 0.00 | 0.00 | 15 | 1009.4 |
| 20260504232907 | 18 | 49 | 0.0 | 8.0 | 0.00 | 0.00 | 0.00 | 15 | 1009.3 |
| 20260504231404 | 18 | 244 | 4.8 | 14.5 | 0.00 | 0.00 | 0.00 | 13 | 1009.2 |
| 20260504230904 | 18 | 223 | 0.0 | 0.0 | 0.00 | 0.00 | 0.00 | 14 | 1009.3 |
| 20260504230404 | 18 | 222 | 0.0 | 4.8 | 0.00 | 0.00 | 0.00 | 14 | 1009.4 |
| 20260504225904 | 17 | 236 | 0.0 | 4.8 | 0.00 | 0.00 | 0.00 | 16 | 1009.5 |
| 20260504225404 | 17 | 28 | 0.0 | 0.0 | 0.00 | 0.00 | 0.00 | 17 | 1009.6 |
| 20260504224404 | 17 | 40 | 1.6 | 14.5 | 0.00 | 0.00 | 0.00 | 16 | 1009.6 |
| 20260504223904 | 17 | 104 | 6.4 | 20.9 | 0.00 | 0.00 | 0.00 | 16 | 1009.7 |
| 20260504222903 | 17 | 41 | 1.6 | 9.7 | 0.00 | 0.00 | 0.00 | 15 | 1009.6 |
| 20260504222404 | 17 | 36 | 1.6 | 3.2 | 0.00 | 0.00 | 0.00 | 14 | 1009.6 |
| 20260504221904 | 17 | 42 | 4.8 | 16.1 | 0.00 | 0.00 | 0.00 | 14 | 1009.6 |
| 20260504220904 | 17 | 3 | 4.8 | 20.9 | 0.00 | 0.00 | 0.00 | 17 | 1009.9 |
| 20260504220404 | 17 | 48 | 3.2 | 12.9 | 0.00 | 0.00 | 0.00 | 18 | 1009.9 |
| 20260504215404 | 16 | 33 | 1.6 | 12.9 | 0.00 | 0.00 | 0.00 | 18 | 1010.3 |
| 20260504214904 | 16 | 34 | 0.0 | 16.1 | 0.00 | 0.00 | 0.00 | 18 | 1010.3 |
| 20260504214404 | 17 | 7 | 3.2 | 25.7 | 0.00 | 0.00 | 0.00 | 18 | 1010.3 |
| 20260504213403 | 17 | 42 | 4.8 | 9.7 | 0.00 | 0.00 | 0.00 | 16 | 1010.1 |
| 20260504212904 | 17 | 31 | 1.6 | 8.0 | 0.00 | 0.00 | 0.00 | 17 | 1010.2 |
| 20260504211904 | 16 | 58 | 0.0 | 4.8 | 0.00 | 0.00 | 0.00 | 19 | 1010.4 |
| 20260504211404 | 16 | 58 | 3.2 | 16.1 | 0.00 | 0.00 | 0.00 | 18 | 1010.5 |
| 20260504210904 | 16 | 44 | 3.2 | 11.3 | 0.00 | 0.00 | 0.00 | 19 | 1010.6 |
| 20260504210406 | 16 | 42 | 3.2 | 19.3 | 0.00 | 0.00 | 0.00 | 19 | 1010.6 |
| 20260504205404 | 16 | 34 | 4.8 | 40.2 | 0.00 | 0.00 | 0.00 | 19 | 1010.7 |
| 20260504204904 | 17 | 45 | 8.0 | 22.5 | 0.00 | 0.00 | 0.00 | 18 | 1010.6 |
| 20260504203403 | 20 | 228 | 4.8 | 19.3 | 0.00 | 0.00 | 0.00 | 13 | 1010.0 |
| 20260504202904 | 19 | 194 | 4.8 | 16.1 | 0.00 | 0.00 | 0.00 | 15 | 1009.9 |
| 20260504202404 | 18 | 220 | 0.0 | 8.0 | 0.00 | 0.00 | 0.00 | 16 | 1010.0 |
| 20260504201404 | 17 | 48 | 0.0 | 19.3 | 0.00 | 0.00 | 0.00 | 15 | 1010.1 |
| 20260504195904 | 18 | 44 | 1.6 | 8.0 | 0.00 | 0.00 | 0.00 | 14 | 1010.2 |
| 20260504195405 | 18 | 40 | 3.2 | 24.1 | 0.00 | 0.00 | 0.00 | 16 | 1010.3 |
| 20260504194904 | 18 | 42 | 1.6 | 14.5 | 0.00 | 0.00 | 0.00 | 16 | 1010.2 |
| 20260504194405 | 18 | 36 | 1.6 | 20.9 | 0.00 | 0.00 | 0.00 | 15 | 1010.3 |
| 20260504193904 | 18 | 44 | 4.8 | 19.3 | 0.00 | 0.00 | 0.00 | 15 | 1010.3 |
| 20260504193404 | 19 | 33 | 1.6 | 16.1 | 0.00 | 0.00 | 0.00 | 15 | 1010.3 |
| 20260504192904 | 19 | 26 | 1.6 | 19.3 | 0.00 | 0.00 | 0.00 | 14 | 1010.4 |
| 20260504192404 | 19 | 216 | 8.0 | 20.9 | 0.00 | 0.00 | 0.00 | 14 | 1010.5 |
| 20260504191904 | 19 | 198 | 6.4 | 20.9 | 0.00 | 0.00 | 0.00 | 13 | 1010.5 |
| 20260504191404 | 19 | 227 | 1.6 | 9.7 | 0.00 | 0.00 | 0.00 | 15 | 1010.5 |
| 20260504190904 | 19 | 210 | 0.0 | 0.0 | 0.00 | 0.00 | 0.00 | 15 | 1010.6 |
| 20260504190404 | 18 | 248 | 0.0 | 0.0 | 0.00 | 0.00 | 0.00 | 15 | 1010.6 |
| 20260504185904 | 18 | 249 | 0.0 | 0.0 | 0.00 | 0.00 | 0.00 | 15 | 1010.7 |
| 20260504185404 | 18 | 249 | 0.0 | 0.0 | 0.00 | 0.00 | 0.00 | 14 | 1010.8 |
| 20260504184904 | 19 | 247 | 0.0 | 3.2 | 0.00 | 0.00 | 0.00 | 14 | 1010.9 |
| 20260504184404 | 19 | 226 | 0.0 | 3.2 | 0.00 | 0.00 | 0.00 | 13 | 1010.9 |
| 20260504183403 | 20 | 201 | 0.0 | 4.8 | 0.00 | 0.00 | 0.00 | 13 | 1011.0 |
| 20260504182904 | 20 | 214 | 8.0 | 16.1 | 0.00 | 0.00 | 0.00 | 12 | 1011.0 |
| 20260504181904 | 20 | 155 | 1.6 | 8.0 | 0.00 | 0.00 | 0.00 | 15 | 1011.0 |
| 20260504180904 | 18 | 105 | 0.0 | 0.0 | 0.00 | 0.00 | 0.00 | 19 | 1011.3 |
| 20260504180404 | 18 | 105 | 1.6 | 4.8 | 0.00 | 0.00 | 0.00 | 16 | 1011.4 |
| 20260504175404 | 18 | 312 | 0.0 | 0.0 | 0.00 | 0.00 | 0.00 | 17 | 1011.5 |
| 20260504174905 | 17 | 312 | 0.0 | 4.8 | 0.00 | 0.00 | 0.00 | 16 | 1011.6 |
| 20260504174404 | 17 | 258 | 0.0 | 3.2 | 0.00 | 0.00 | 0.00 | 19 | 1011.6 |
| 20260504173904 | 17 | 241 | 0.0 | 4.8 | 0.00 | 0.00 | 0.00 | 21 | 1011.7 |
| 20260504173404 | 17 | 252 | 0.0 | 4.8 | 0.00 | 0.00 | 0.00 | 20 | 1011.8 |
| 20260504172904 | 17 | 355 | 0.0 | 3.2 | 0.00 | 0.00 | 0.00 | 20 | 1011.8 |
| 20260504172405 | 16 | 355 | 0.0 | 4.8 | 0.00 | 0.00 | 0.00 | 21 | 1011.9 |
| 20260504171903 | 16 | 27 | 0.0 | 4.8 | 0.00 | 0.00 | 0.00 | 22 | 1012.0 |
| 20260504171403 | 16 | 31 | 0.0 | 0.0 | 0.00 | 0.00 | 0.00 | 21 | 1012.0 |
| 20260504170907 | 15 | 31 | 0.0 | 3.2 | 0.00 | 0.00 | 0.00 | 23 | 1012.1 |
| 20260504170404 | 15 | 31 | 0.0 | 1.6 | 0.00 | 0.00 | 0.00 | 22 | 1012.1 |
| 20260504160404 | 12 | 63 | 0.0 | 0.0 | 0.00 | 0.00 | 0.00 | 31 | 1012.5 |
| 20260504150904 | 6 | 63 | 0.0 | 0.0 | 0.00 | 0.00 | 0.00 | 44 | 1013.4 |
| 20260504140904 | 2 | 98 | 0.0 | 0.0 | 0.00 | 0.00 | 0.00 | 62 | 1014.0 |
| 20260504140404 | 1 | 98 | 1.6 | 3.2 | 0.00 | 0.00 | 0.00 | 63 | 1014.1 |
| 20260504130404 | -1 | 190 | 0.0 | 0.0 | 0.00 | 0.00 | 0.00 | 69 | 1013.9 |